Sioux City, IA

4:43 AM CST on December 09, 2019 (GMT -0600)
Sioux Gateway

Weather History for KSUX - October, 2019

Change the Weather History Date:

Thursday, October 10, 2019

  Actual Average Record
Temperature  
Mean Temperature 46 °F 53 °F  
Max Temperature 55 °F 66 °F 92 °F (1928)
Min Temperature 35 °F 40 °F 24 °F (2000)
Degree Days  
Heating Degree Days 20 12  
Month to date heating degree days 131 107  
Since 1 July heating degree days 167 254  
Cooling Degree Days 0 0  
Month to date cooling degree days 0 8  
Year to date cooling degree days 910 869  
Moisture  
Dew Point 43 °F    
Average Humidity 92    
Maximum Humidity 100    
Minimum Humidity 82    
Precipitation  
Precipitation 0.17 in 0.07 in 1.45 in (1901)
Month to date precipitation 2.17 0.85  
Year to date precipitation 30.28 24.35  
Snow  
Snow T in 0.00 in 1.00 in (2009)
Month to date snowfall T 0.1  
Since 1 July snowfall T 0.1  
Since 1 September snowfall T 0.1  
Snow Depth 0.00 in    
Sea Level Pressure  
Sea Level Pressure 29.85 in    
Wind  
Wind Speed 13 mph ()    
Max Wind Speed 30 mph    
Max Gust Speed 39 mph    
Visibility 7.3 miles    
Events Rain    
T = Trace of Precipitation, MM = Missing Value Source: Averaged Metar Reports

Daily Weather History Graph

Daily Weather History Graph

Search for Another Location

Airport or City:

Astronomy

Oct. 10, 2019 Rise Set
Actual Time 7:32 AM CDT 6:51 PM CDT
Civil Twilight 7:04 AM CDT 7:20 PM CDT
Nautical Twilight 6:31 AM CDT 7:52 PM CDT
Astronomical Twilight 5:59 AM CDT 8:25 PM CDT
Moon 5:58 PM CDT (10/10) 4:11 AM CDT (10/10)
Length of Visible Light 12h 15m
Length of Day
11h 19m
Waxing Gibbous, 91% of the Moon is Illuminated
Oct 10
Waxing Gibbous
Oct 13
Full
Oct 21
Last Quarter
Oct 27
New
Nov 4
First Quarter

Hourly Weather History & Observations

Time (CDT) Temp. Windchill Dew Point Humidity Pressure Visibility Wind Dir Wind Speed Gust Speed Precip Events Conditions
12:52 AM 55.9 °F - 52.0 °F 87% 29.84 in 10.0 mi SE 9.2 mph - N/A   Overcast
1:01 AM 55.9 °F - 52.0 °F 87% 29.84 in 10.0 mi SE 10.4 mph - N/A   Overcast
1:52 AM 55.9 °F - 53.1 °F 90% 29.84 in 10.0 mi SSE 9.2 mph - N/A   Overcast
2:52 AM 55.9 °F - 53.1 °F 90% 29.82 in 10.0 mi Calm Calm - N/A   Overcast
3:52 AM 55.9 °F - 53.1 °F 90% 29.81 in 10.0 mi ESE 4.6 mph - N/A   Overcast
4:44 AM 55.0 °F - 53.1 °F 93% 29.77 in 7.0 mi East 15.0 mph - 0.04 in Rain Rain
4:52 AM 55.0 °F - 53.1 °F 93% 29.73 in 7.0 mi East 20.7 mph 29.9 mph 0.07 in Rain Rain
5:08 AM 55.0 °F - 54.0 °F 96% 29.78 in 10.0 mi WNW 9.2 mph 17.3 mph 0.01 in Rain Light Rain
5:16 AM 55.0 °F - 54.0 °F 96% 29.79 in 10.0 mi Variable 5.8 mph - 0.01 in Rain Light Rain
5:50 AM 55.4 °F - 53.6 °F 94% 29.76 in 10.0 mi East 8.1 mph - 0.01 in   Overcast
5:52 AM 55.0 °F - 54.0 °F 96% 29.75 in 10.0 mi ESE 8.1 mph - 0.01 in   Overcast
6:45 AM 53.1 °F - 52.0 °F 96% 29.80 in 10.0 mi NW 9.2 mph - N/A   Overcast
6:52 AM 53.1 °F - 52.0 °F 96% 29.81 in 10.0 mi WNW 10.4 mph - N/A   Overcast
7:13 AM 53.1 °F - 52.0 °F 96% 29.80 in 10.0 mi NW 17.3 mph 23.0 mph N/A   Overcast
7:52 AM 48.0 °F - 46.0 °F 93% 29.83 in 10.0 mi NW 17.3 mph - N/A   Overcast
8:52 AM 44.1 °F 37.7 °F 43.0 °F 96% 29.83 in 9.0 mi NW 12.7 mph 25.3 mph 0.01 in Rain Light Rain
9:52 AM 43.0 °F 35.1 °F 41.0 °F 93% 29.85 in 3.0 mi NW 17.3 mph 25.3 mph 0.00 in Rain Light Rain
10:52 AM 42.1 °F 34.2 °F 41.0 °F 96% 29.86 in 2.0 mi NW 16.1 mph 27.6 mph 0.00 in Rain Light Rain
11:16 AM 42.1 °F 33.6 °F 39.9 °F 92% 29.83 in 4.0 mi NNW 18.4 mph 28.8 mph 0.01 in   Overcast
11:23 AM 42.1 °F 33.9 °F 39.9 °F 92% 29.83 in 5.0 mi NW 17.3 mph 28.8 mph 0.01 in   Overcast
11:31 AM 42.1 °F 33.3 °F 39.9 °F 92% 29.83 in 5.0 mi NW 19.6 mph 28.8 mph 0.01 in   Overcast
11:43 AM 42.1 °F 34.2 °F 39.9 °F 92% 29.83 in 3.0 mi NW 16.1 mph 26.5 mph 0.01 in Rain Light Rain
11:52 AM 41.0 °F 31.6 °F 39.9 °F 96% 29.85 in 2.5 mi NW 20.7 mph 27.6 mph 0.01 in Rain Light Rain
12:52 PM 41.0 °F 32.8 °F 39.9 °F 96% 29.84 in 2.5 mi NW 16.1 mph 25.3 mph 0.00 in   Overcast
12:59 PM 41.0 °F 31.9 °F 39.9 °F 96% 29.83 in 4.0 mi NW 19.6 mph 31.1 mph N/A   Overcast
1:34 PM 39.9 °F 29.5 °F 37.9 °F 93% 29.82 in 2.5 mi NW 24.2 mph 34.5 mph 0.00 in Rain Light Rain
1:52 PM 39.9 °F 30.0 °F 37.9 °F 93% 29.84 in 2.0 mi NW 21.9 mph 36.8 mph 0.00 in Rain Light Rain
2:52 PM 39.0 °F 28.5 °F 37.0 °F 93% 29.83 in 2.5 mi NNW 23.0 mph 33.4 mph 0.01 in Rain Light Rain
3:52 PM 37.9 °F 27.3 °F 37.0 °F 97% 29.86 in 2.5 mi NW 21.9 mph 34.5 mph 0.01 in Rain Light Rain
4:37 PM 37.9 °F 28.9 °F 36.0 °F 93% 29.86 in 5.0 mi NW 16.1 mph 34.5 mph 0.00 in   Overcast
4:47 PM 37.4 °F 26.9 °F 35.6 °F 93% 29.86 in 5.0 mi NW 20.7 mph 31.1 mph 0.00 in Rain Light Rain
4:52 PM 37.9 °F 27.3 °F 36.0 °F 93% 29.87 in 5.0 mi NW 21.9 mph 31.1 mph 0.00 in Rain Light Rain
5:42 PM 37.9 °F 27.6 °F 36.0 °F 93% 29.87 in 10.0 mi NW 20.7 mph 32.2 mph 0.01 in   Overcast
5:52 PM 37.0 °F 25.6 °F 35.1 °F 93% 29.90 in 10.0 mi NW 24.2 mph 38.0 mph 0.01 in   Overcast
6:18 PM 37.0 °F 26.7 °F 35.1 °F 93% 29.89 in 10.0 mi NW 19.6 mph 32.2 mph 0.00 in Rain Light Rain
6:52 PM 37.0 °F 26.2 °F 34.0 °F 89% 29.91 in 10.0 mi NW 21.9 mph 36.8 mph 0.00 in   Overcast
7:52 PM 37.0 °F 27.7 °F 34.0 °F 89% 29.94 in 10.0 mi NW 16.1 mph 33.4 mph 0.03 in   Overcast
8:41 PM 36.0 °F 25.0 °F 33.1 °F 89% 29.93 in 10.0 mi NW 20.7 mph 31.1 mph 0.01 in   Overcast
8:52 PM 37.0 °F 26.7 °F 33.1 °F 86% 29.96 in 10.0 mi NW 19.6 mph 31.1 mph 0.01 in   Overcast
9:52 PM 36.0 °F 25.6 °F 33.1 °F 89% 29.99 in 10.0 mi NW 18.4 mph 28.8 mph N/A   Overcast
10:52 PM 36.0 °F 25.3 °F 32.0 °F 86% 30.00 in 10.0 mi NW 19.6 mph 31.1 mph N/A   Overcast
11:52 PM 36.0 °F 25.0 °F 30.9 °F 82% 30.01 in 10.0 mi NW 20.7 mph 27.6 mph N/A   Overcast